Flag for U.S.A. Weather past 2 weeks in Wichita Falls, Texas, U.S.A.

Now
78 °F

Broken clouds.


Feels Like: 80 °F
Forecast: 65 / 86 °F
Wind: 9 mph from South

Location: Wichita Falls - Sheppard Air Force Base

Current Time: Apr 1, 2015 at 1:48:38 PM

Latest Report: Apr 1, 2015 at 12:52 PM


Visibility: 10 mi

Pressure: 29.79 "Hg

Humidity: 60%

Dew point: 63 °F

Location of Wichita FallsLocation

Historic Weather in Wichita Falls — Graph

°F

Wichita Falls temperature yesterday

Maximum temperature yesterday: 85 °F (at 2:52 PM)
Minimum temperature yesterday: 55 °F (at 6:52 AM)
Average temperature yesterday: 70 °F

Past Weeks' High & Low Weather Summary

 TemperatureHumidityPressure
High88 °F (Mar 25, 2:52 PM)100% (Mar 22, 7:52 AM)30.24 "Hg (Mar 22, 7:52 AM)
Low40 °F (Mar 27, 6:52 AM)28% (Mar 24, 3:52 PM)29.63 "Hg (Mar 25, 6:52 PM)
Average60 °F70%30.00 "Hg
* Reported Mar 17 12:52 PM — Apr 1 12:52 PM, Wichita Falls, Weather by CustomWeather, © 2015

Note: Actual official high and low records may vary slightly from our data, if they occured in-between our weather recording intervals... More about our weather records

Advertising

Wichita Falls weather history for previous 24 hours

 ConditionsComfort  
Time TempWeatherWind HumidityBarometerVisibility
12:52 PM
Wed, Apr 1
78 °FBroken clouds.9 mph60%29.79 "Hg10 mi
11:52 AM76 °FPartly sunny.9 mph67%29.81 "Hg10 mi
10:52 AM72 °FPartly sunny.13 mph73%29.82 "Hg9 mi
9:52 AM69 °FSunny.10 mph79%29.81 "Hg9 mi
8:52 AM67 °FPartly sunny.12 mph85%29.82 "Hg9 mi
7:52 AM63 °FPassing clouds.12 mph90%29.81 "Hg10 mi
6:52 AM61 °FPartly cloudy.13 mph90%29.81 "Hg10 mi
5:52 AM61 °FThundershowers. Partly cloudy.9 mph87%29.82 "Hg9 mi
4:52 AM61 °FClear.9 mph87%29.83 "Hg10 mi
3:52 AM61 °FClear.10 mph83%29.81 "Hg10 mi
2:52 AM60 °FClear.10 mph86%29.82 "Hg10 mi
1:52 AM61 °FClear.16 mph87%29.83 "Hg10 mi
12:52 AM65 °FClear.10 mph68%29.83 "Hg10 mi
11:52 PM
Tue, Mar 31
64 °FPassing clouds.23 mph75%29.87 "Hg10 mi
10:59 PM62 °FStrong thunderstorms. Fog.31 mph86%29.93 "Hg1 mi
9:52 PM76 °FPassing clouds.13 mph58%29.81 "Hg10 mi
8:52 PM75 °FSunny.13 mph64%29.77 "Hg10 mi
7:52 PM77 °FScattered clouds.9 mph60%29.78 "Hg10 mi
6:52 PM82 °FScattered clouds.15 mph49%29.77 "Hg10 mi
5:52 PM85 °FScattered clouds.12 mph46%29.77 "Hg10 mi
4:52 PM83 °FPassing clouds.10 mph50%29.80 "Hg10 mi
3:52 PM85 °FPassing clouds.9 mph46%29.83 "Hg10 mi
2:52 PM85 °FPassing clouds.9 mph50%29.85 "Hg10 mi
1:52 PM83 °FPassing clouds.9 mph53%29.87 "Hg10 mi
Weather by CustomWeather, © 2015

See weather overviewHow to use our weather pages